Regional Weather Roundup
Issued by NWS State College, PA

Home | Current Version | Previous Version | Text Only | Print | Product List | Glossary Off
Versions: 1 2 3 4 5 6 7 8 9 10 11 12 13 14 15 16 17 18 19 20 21 22 23 24 25 26 27 28 29 30 31 32 33 34 35 36 37 38 39 40 41 42 43 44 45 46 47 48 49 50

000
ASUS41 KCTP 021003
RWRCTP

REGIONAL WEATHER ROUNDUP
NATIONAL WEATHER SERVICE STATE COLLEGE PA
500 AM EST MON MAR 02 2015

Note: "fair" indicates few or no clouds below 12,000 feet with no
significant weather and/or obstructions to visibility.

* = STATION THAT DOES NOT REPORT PRECIPITATION /E.G. RAIN...SNOW...ETC/
    THUNDER OR FOG.

PAZ002>004-007>009-013>016-020>023-029>032-021100-
WESTERN PENNSYLVANIA

CITY           SKY/WX    TMP DP  RH WIND       PRES   REMARKS
ERIE           LGT SNOW  21  16  81 W12       30.22R WCI   9
MEADVILLE      LGT SNOW  19  15  84 W13       30.18R WCI   6
FRANKLIN*      CLOUDY    19  14  79 W15G21    30.19R WCI   5
NEW CASTLE     LGT SNOW  21  18  88 W6        30.26R FOG     WCI  13
BEAVER COUNTY  NOT AVBL
BUTLER*        CLOUDY    25  19  80 NW8       30.22R
PITTSBURGH INT FLURRIES  25  21  85 NW16      30.22R WCI  12
PITTSBURGH     CLOUDY    27  20  75 NW9G20    30.20R
INDIANA*       CLOUDY    28  27  93 NW10G23   30.20R FOG
LATROBE        LGT RAIN  30  28  93 W9        30.22R
WASHINGTON CO* CLOUDY    28  23  80 NW9G16    30.24R
$$

PAZ004>006-010>012-017>019-024>028-033>037-041-042-045-046-049>053-021100-
CENTRAL PENNSYLVANIA

CITY           SKY/WX    TMP DP  RH WIND       PRES   REMARKS
BRADFORD       LGT SNOW  18  14  84 W12       30.06R FOG     WCI   5
DUBOIS         CLOUDY    22  19  89 W17G24    30.10R FOG     WCI   8
CLEARFIELD     LGT SNOW  27  21  78 W17G26    30.10R WCI  14
JOHNSTOWN      SNOW      28  26  92 W16G23    30.07R VSB 1/2
ALTOONA        CLOUDY    34  27  75 NW17      30.07R
STATE COLLEGE  CLOUDY    32  26  77 W20G25    30.06R
WILLIAMSPORT   CLOUDY    25  22  88 CALM      30.07S FOG
SELINSGROVE    CLOUDY    28  25  88 CALM      30.08R FOG
FT INDIANTOWN  CLOUDY    26  24  93 CALM      30.06S FOG
CAPITAL CITY   CLOUDY    27  25  92 CALM      30.08R FOG
HARRISBURG     CLOUDY    28  25  88 CALM      30.07S FOG
YORK           CLOUDY    30  28  92 CALM      30.07R FOG
$$

PAZ038>040-043-044-047-048-054-055-060>062-067>071-021100-
EASTERN PENNSYLVANIA

CITY           SKY/WX    TMP DP  RH WIND       PRES   REMARKS
SCRANTON       LGT SNOW  26  23  88 SW8       30.01S
MOUNT POCONO   CLOUDY    26  24  92 W14       29.94S FOG     WCI  14
ALLENTOWN      CLOUDY    27  23  85 W3        30.05F FOG
QUAKERTOWN*    PTSUNNY   28  27  93 CALM      30.05S
READING        CLOUDY    27  24  89 CALM      30.06S FOG
LANCASTER      CLOUDY    29  28  96 SW6       30.06R FOG
COATESVILLE    CLOUDY    32  32 100 NW5       30.04S FOG
POTTSTOWN      CLOUDY    27  27 100 NW3       30.07S FOG
BLUE BELL      CLOUDY    32  32 100 CALM      30.04F
DOYLESTOWN     CLOUDY    28  28 100 W5        30.03F
WILLOW GROVE   NOT AVBL
NORTH PHILA    CLOUDY    33  28  81 W6        30.07F HAZE
PHILADELPHIA   CLOUDY    32  30  92 SW5       30.08F FOG
$$


USA.gov is the U.S. government's official web portal to all federal, state and local government web resources and services.